Location: Newark
(51.5306°N, 0.2243°W)
Time: 00:20:25
(UTC+00:00)

ISS - Visible Passes

Search period start: 21 September 2019 00:00
Search period end: 01 October 2019 00:00
Orbit: 411 x 421 km, 51.6° (Epoch: 21 September)

Date Brightness Start Highest point End Pass type
(mag) Time Alt. Az. Time Alt. Az. Time Alt. Az.
21 Sep -1.7 18:36:36 10° S 18:38:14 13° SE 18:39:53 10° ESE visible
21 Sep -2.5 20:11:10 10° SW 20:13:11 31° SSW 20:13:11 31° SSW visible
22 Sep -3.1 19:22:57 10° SW 19:26:01 36° SSE 19:26:56 29° ESE visible
22 Sep -0.9 20:59:15 10° W 20:59:51 14° W 20:59:51 14° W visible
23 Sep -2.5 18:34:52 10° SSW 18:37:41 26° SSE 18:40:31 10° E visible
23 Sep -3.2 20:10:48 10° WSW 20:13:27 53° WSW 20:13:27 53° WSW visible
24 Sep -3.7 19:22:23 10° WSW 19:25:41 61° SSE 19:26:58 33° E visible
24 Sep -1.0 20:59:04 10° W 20:59:52 16° W 20:59:52 16° W visible
25 Sep -3.3 18:34:03 10° SW 18:37:15 46° SSE 18:40:23 10° E visible
25 Sep -3.2 20:10:33 10° W 20:13:17 57° W 20:13:17 57° W visible
26 Sep -3.9 19:22:03 10° W 19:25:23 86° S 19:26:39 35° E visible
26 Sep -0.8 20:58:49 10° W 20:59:32 16° W 20:59:32 16° W visible
27 Sep -3.8 18:33:34 10° WSW 18:36:53 74° SSE 18:39:58 12° E visible
27 Sep -3.0 20:10:18 10° W 20:12:52 50° W 20:12:52 50° W visible
28 Sep -3.9 19:21:46 10° W 19:25:06 86° N 19:26:09 41° E visible
28 Sep -0.7 20:58:31 10° W 20:59:02 14° W 20:59:02 14° W visible
29 Sep -3.8 18:33:13 10° W 18:36:34 88° N 18:39:25 13° E visible
29 Sep -2.6 20:09:59 10° W 20:12:18 41° W 20:12:18 41° W visible
30 Sep -3.9 19:21:26 10° W 19:24:47 83° S 19:25:34 49° ESE visible
30 Sep -0.5 20:58:17 10° W 20:58:27 11° W 20:58:27 11° W visible
